Location: Eaton Estates
(41.3089°N, 82.0057°W)
Time: 15:59:46
(UTC+00:00)

NOAA 18 - Pass Details

Date: 07 April 2023
Orbit: 838 x 860 km, 98.9° (Epoch: 03 June)

Event Time Altitude Azimuth Distance (km) Brightness Sun altitude
Exits shadow 02:52:46 40° 31° (NNE) 1,247 6.1 -30.0°
Drops below altitude 10° 02:56:45 10° 357° (N) 2,505 8.2 -30.5°
Sets 02:59:12 0° 352° (N) 3,445 9.1 -30.8°
